Regional Weather Roundup
Issued by NWS Cleveland, OH

Home | Current Version | Previous Version | Graphics & Text | Print | Product List | Glossary On
Versions: 1 2 3 4 5 6 7 8 9 10 11 12 13 14 15 16 17 18 19 20 21 22 23 24 25 26 27 28 29 30 31 32 33 34 35 36 37 38 39 40 41 42 43 44 45 46 47 48 49 50
281
ASUS41 KCLE 250110
RWRCLE
OHIO REGIONAL WEATHER ROUNDUP
NATIONAL WEATHER SERVICE CLEVELAND, OH
900 PM EDT TUE APR 24 2018

NOTE: "FAIR" INDICATES FEW OR NO CLOUDS BELOW 12,000 FEET WITH NO
SIGNIFICANT WEATHER AND/OR OBSTRUCTIONS TO VISIBILITY.

OHZ001>008-015>018-024>027-034-035-043-044-250200-
   NORTHWEST OHIO

CITY           SKY/WX    TMP DP  RH WIND       PRES   REMARKS
DEFIANCE       CLOUDY    52  49  89 NE8       29.96S
FINDLAY        LGT RAIN  53  50  89 N7        29.93R FOG
TOLEDO EXPRESS CLOUDY    50  50 100 NE13      29.96S FOG
TOLEDO EXEC    LGT RAIN  49  48  97 NE6       29.97S FOG
LIMA           LGT RAIN  52  52 100 N5        29.93R FOG
$$

OHZ009>014-019>023-028>033-038-089-250200-
   NORTHEAST OHIO

CITY           SKY/WX    TMP DP  RH WIND       PRES   REMARKS
CLE-HOPKINS    LGT RAIN  54  51  90 E8        29.98F
CLE-LAKEFRONT  LGT RAIN  54  49  83 E8        29.96S
CUY CO. ARPT   LGT RAIN  54  52  94 SE12      29.98S
LORAIN-ELYRIA  LGT RAIN  52  47  83 E8        29.96S
ASHTABULA      LGT RAIN  51  50  96 SE9       30.01S
AKRON-CANTON   CLOUDY    52  48  86 SE12      29.96S FOG
WOOSTER        LGT RAIN  51  50  96 SE9       29.95S
MANSFIELD      CLOUDY    52  51  97 E10       29.93S FOG
YOUNGSTOWN     LGT RAIN  51  49  92 E10       29.99R
$$

OHZ042-051>053-060>062-070>072-077>081-250200-
  SOUTHWEST OHIO

CITY           SKY/WX    TMP DP  RH WIND       PRES   REMARKS
CINC-COVINGTON CLOUDY    54  54 100 N7        29.89R
CINC-LUNKEN    CLOUDY    56  55  97 N5        29.90R FOG
HAMILTON       CLOUDY    55  53  93 N5        29.91R FOG
DAYTON         FOG       52  52 100 N7        29.91S VSB 1
WRIGHT-PAT AFB CLOUDY    54  53  96 N5        29.90S FOG
DAYTON GENERAL CLOUDY    55  53  93 NE3       29.89S
WILMINGTON     CLOUDY    54  54 100 NE3       29.89S FOG
$$

OHZ036-037-039>041-045>050-054>059-063>069-073>076-082>088-250200-
  CENTRAL AND SOUTHEAST OHIO

CITY           SKY/WX    TMP DP  RH WIND       PRES   REMARKS
COLUMBUS       DRIZZLE   54  52  93 E7        29.90S
OSU AIRPORT    LGT RAIN  53  52  96 E5        29.90S FOG
BOLTON FIELD   CLOUDY    53  53  99 E3        29.91R FOG
RICKENBACK AFB CLOUDY    53  53 100 E5        29.90S
NEWARK         CLOUDY    54  51  90 E5        29.91S
MARION         CLOUDY    53  51  93 SE7       29.93R FOG
LANCASTER      CLOUDY    54  52  93 E6        29.91R
ZANESVILLE     LGT RAIN  53  50  89 E6        29.91S
NEW PHILLY     NOT AVBL
$$




USA.gov is the U.S. government's official web portal to all federal, state and local government web resources and services.